Torna al catalogo

FLOCK 4Q 13

AttivoScienzaSSO
NORAD 58328·PAYLOAD·🇺🇸 United States

Lanciato Nov 11, 2023 da Vandenberg Space Force Base

Loading…

Prossimi Passaggi (prossime 24 ore)

TLE

AggiornatoSource: CelesTrak SupGP

Epoca: Sep 14, 2026, 14:44 UTC

1 58328C 23174CA  26257.61422454  .00033337  00000+0  48729-3 0  2571
2 58328  97.3981 351.2887 0006118 168.2165 342.6884 15.55595375    10

Traccia FLOCK 4Q 13 in tempo reale con AllMySat

Download on the App Store